| time (UTC) | temp C | wind direction | speed KPH | gust KPH | rain 1hr cm | rain 24hr cm | rain mn cm | humidity % | barometer mb |
| 20260502200533 | 25 | 23 | 9.7 | 22.5 | 0.00 | 2.21 | 0.00 | 49 | 1018.5 |
| 20260502200029 | 26 | 28 | 9.7 | 22.5 | 0.00 | 2.24 | 0.00 | 47 | 1018.6 |
| 20260502195529 | 26 | 8 | 9.7 | 24.1 | 0.00 | 2.24 | 0.00 | 49 | 1018.6 |
| 20260502195507 | 26 | 22 | 6.4 | 24.1 | 0.00 | 2.24 | 0.00 | 49 | 1018.8 |
| 20260502194730 | 25 | 14 | 6.4 | 22.5 | 0.00 | 2.29 | 0.00 | 50 | 1018.7 |
| 20260502193930 | 25 | 291 | 11.3 | 29.0 | 0.00 | 2.29 | 0.00 | 50 | 1018.8 |
| 20260502193635 | 25 | 10 | 12.9 | 29.0 | 0.00 | 2.29 | 0.00 | 50 | 1019.1 |
| 20260502193108 | 25 | 359 | 14.5 | 25.7 | 0.00 | 2.34 | 0.00 | 49 | 1019.1 |
| 20260502192333 | 25 | 4 | 11.3 | 24.1 | 0.00 | 2.39 | 0.00 | 50 | 1019.1 |
| 20260502192039 | 25 | 56 | 11.3 | 22.5 | 0.00 | 2.39 | 0.00 | 51 | 1019.2 |
| 20260502191242 | 24 | 339 | 14.5 | 29.0 | 0.00 | 2.39 | 0.00 | 52 | 1019.2 |
| 20260502191008 | 24 | 354 | 16.1 | 29.0 | 0.00 | 2.39 | 0.00 | 52 | 1019.1 |
| 20260502190217 | 24 | 19 | 16.1 | 29.0 | 0.00 | 2.39 | 0.00 | 49 | 1019.1 |
| 20260502185647 | 24 | 14 | 16.1 | 29.0 | 0.00 | 2.41 | 0.00 | 51 | 1019.2 |
| 20260502185119 | 24 | 41 | 14.5 | 29.0 | 0.00 | 2.57 | 0.00 | 50 | 1019.3 |
| 20260502184853 | 25 | 27 | 12.9 | 29.0 | 0.00 | 3.25 | 0.00 | 51 | 1019.3 |
| 20260502184049 | 24 | 12 | 12.9 | 27.4 | 0.00 | 3.48 | 0.00 | 52 | 1019.4 |
| 20260502183551 | 24 | 34 | 11.3 | 27.4 | 0.00 | 3.48 | 0.00 | 51 | 1019.4 |
| 20260502183019 | 24 | 345 | 11.3 | 27.4 | 0.00 | 3.51 | 0.00 | 53 | 1019.4 |
| 20260502182516 | 24 | 341 | 11.3 | 27.4 | 0.00 | 3.58 | 0.00 | 51 | 1019.5 |
| 20260502182017 | 24 | 15 | 11.3 | 27.4 | 0.00 | 3.76 | 0.00 | 52 | 1019.7 |
| 20260502181510 | 23 | 12 | 11.3 | 27.4 | 0.00 | 4.09 | 0.00 | 53 | 1019.7 |
| 20260502180953 | 23 | 30 | 12.9 | 27.4 | 0.00 | 4.32 | 0.00 | 53 | 1019.8 |
| 20260502180423 | 23 | 11 | 16.1 | 38.6 | 0.00 | 4.39 | 0.00 | 53 | 1019.9 |
| 20260502180418 | 23 | 51 | 16.1 | 27.4 | 0.00 | 4.39 | 0.00 | 53 | 1019.9 |
| 20260502170124 | 22 | 345 | 16.1 | 32.2 | 0.00 | 4.57 | 0.00 | 61 | 1020.2 |
| 20260502164033 | 21 | 55 | 12.9 | 27.4 | 0.00 | 4.57 | 0.00 | 63 | 1020.1 |
| 20260502163737 | 21 | 12 | 16.1 | 27.4 | 0.00 | 4.60 | 0.00 | 65 | 1020.2 |
| 20260502163218 | 21 | 4 | 16.1 | 33.8 | 0.00 | 4.65 | 0.00 | 64 | 1020.2 |
| 20260502162421 | 21 | 43 | 14.5 | 33.8 | 0.00 | 4.85 | 0.00 | 63 | 1020.2 |
| 20260502162148 | 21 | 354 | 14.5 | 27.4 | 0.00 | 4.95 | 0.00 | 66 | 1020.1 |
| 20260502161625 | 21 | 354 | 12.9 | 29.0 | 0.00 | 5.03 | 0.00 | 67 | 1020.2 |
| 20260502160852 | 21 | 4 | 12.9 | 30.6 | 0.00 | 5.13 | 0.00 | 67 | 1020.1 |
| 20260502160622 | 21 | 338 | 14.5 | 30.6 | 0.00 | 5.23 | 0.00 | 67 | 1020.0 |
| 20260502152257 | 19 | 4 | 12.9 | 25.7 | 0.00 | 5.26 | 0.00 | 76 | 1020.0 |
| 20260502152011 | 18 | 23 | 11.3 | 24.1 | 0.00 | 5.26 | 0.00 | 76 | 1020.0 |
| 20260502151511 | 18 | 4 | 12.9 | 29.0 | 0.00 | 5.26 | 0.00 | 77 | 1020.0 |
| 20260502151314 | 18 | 48 | 12.9 | 29.0 | 0.00 | 5.26 | 0.00 | 77 | 1020.0 |
| 20260502150451 | 18 | 354 | 11.3 | 25.7 | 0.00 | 5.26 | 0.00 | 79 | 1020.0 |
| 20260502130743 | 13 | 4 | 6.4 | 19.3 | 0.00 | 5.44 | 0.00 | 95 | 1018.7 |
| 20260502130240 | 13 | 22 | 8.0 | 19.3 | 0.00 | 5.46 | 0.00 | 95 | 1018.7 |
| 20260502123621 | 12 | 37 | 6.4 | 17.7 | 0.00 | 5.46 | 0.00 | 97 | 1018.4 |
| 20260502123028 | 12 | 17 | 6.4 | 16.1 | 0.00 | 5.46 | 0.00 | 97 | 1018.2 |
| 20260502122501 | 12 | 349 | 6.4 | 17.7 | 0.00 | 5.49 | 0.00 | 97 | 1018.1 |
| 20260502121934 | 12 | 13 | 8.0 | 17.7 | 0.00 | 5.49 | 0.00 | 97 | 1018.0 |
| 20260502121431 | 12 | 16 | 8.0 | 16.1 | 0.00 | 5.49 | 0.00 | 97 | 1018.0 |
| 20260502120909 | 11 | 11 | 6.4 | 14.5 | 0.00 | 5.49 | 0.00 | 97 | 1018.0 |
| 20260502120402 | 11 | 4 | 4.8 | 12.9 | 0.00 | 5.49 | 0.00 | 97 | 1018.2 |
| 20260502115834 | 11 | 4 | 4.8 | 12.9 | 0.00 | 5.49 | 0.00 | 97 | 1018.0 |
| 20260502115334 | 11 | 23 | 4.8 | 12.9 | 0.00 | 5.49 | 0.00 | 96 | 1018.0 |
| 20260502114811 | 11 | 359 | 3.2 | 12.9 | 0.00 | 5.49 | 0.00 | 96 | 1018.0 |
| 20260502114300 | 11 | 15 | 1.6 | 9.7 | 0.00 | 5.49 | 0.00 | 96 | 1018.0 |
| 20260502113757 | 11 | 15 | 4.8 | 12.9 | 0.00 | 5.49 | 0.00 | 96 | 1017.8 |
| 20260502113232 | 11 | 14 | 4.8 | 12.9 | 0.00 | 5.49 | 0.00 | 96 | 1017.8 |
| 20260502112704 | 11 | 23 | 4.8 | 16.1 | 0.00 | 5.49 | 0.00 | 96 | 1017.7 |
| 20260502112433 | 11 | 348 | 6.4 | 16.1 | 0.00 | 5.49 | 0.00 | 96 | 1017.5 |
| 20260502112314 | 11 | 4 | 6.4 | 16.1 | 0.00 | 5.49 | 0.00 | 96 | 1017.5 |
| 20260502111153 | 11 | 18 | 8.0 | 17.7 | 0.00 | 5.49 | 0.00 | 96 | 1017.4 |
| 20260502110627 | 11 | 354 | 8.0 | 17.7 | 0.00 | 5.49 | 0.00 | 96 | 1017.3 |
| 20260502110123 | 12 | 30 | 6.4 | 16.1 | 0.00 | 5.51 | 0.00 | 96 | 1017.3 |
| 20260502105556 | 12 | 22 | 4.8 | 16.1 | 0.00 | 5.51 | 0.00 | 96 | 1017.2 |
| 20260502105055 | 12 | 10 | 4.8 | 11.3 | 0.00 | 5.51 | 0.00 | 96 | 1017.2 |
| 20260502104528 | 12 | 8 | 6.4 | 16.1 | 0.00 | 5.51 | 0.00 | 96 | 1017.2 |
| 20260502104024 | 12 | 25 | 6.4 | 16.1 | 0.00 | 5.51 | 0.00 | 96 | 1017.1 |
| 20260502103458 | 12 | 17 | 6.4 | 16.1 | 0.00 | 5.51 | 0.00 | 96 | 1017.0 |
| 20260502102934 | 12 | 354 | 8.0 | 16.1 | 0.00 | 5.54 | 0.00 | 95 | 1017.0 |
| 20260502102410 | 12 | 16 | 6.4 | 16.1 | 0.00 | 5.59 | 0.00 | 95 | 1017.0 |
| 20260502101845 | 12 | 341 | 4.8 | 16.1 | 0.00 | 5.66 | 0.00 | 95 | 1017.0 |
| 20260502101345 | 12 | 16 | 3.2 | 12.9 | 0.00 | 5.77 | 0.00 | 95 | 1016.9 |
| 20260502100831 | 12 | 11 | 3.2 | 12.9 | 0.00 | 5.77 | 0.00 | 95 | 1016.6 |
| 20260502100338 | 12 | 359 | 4.8 | 12.9 | 0.00 | 5.77 | 0.00 | 95 | 1016.3 |
| 20260502091500 | 12 | 21 | 4.8 | 14.5 | 0.00 | 5.94 | 0.00 | 93 | 1015.8 |
| 20260502090706 | 12 | 30 | 6.4 | 17.7 | 0.00 | 5.97 | 0.00 | 93 | 1015.7 |
| 20260502090416 | 12 | 23 | 6.4 | 17.7 | 0.00 | 5.99 | 0.00 | 93 | 1015.5 |
| 20260502071515 | 12 | 23 | 8.0 | 16.1 | 0.00 | 6.73 | 0.00 | 98 | 1015.5 |
| 20260502071012 | 12 | 37 | 8.0 | 16.1 | 0.00 | 6.78 | 0.00 | 98 | 1015.4 |
| 20260502070453 | 12 | 33 | 6.4 | 16.1 | 0.00 | 6.81 | 0.00 | 98 | 1015.5 |
| 20260502065947 | 12 | 343 | 8.0 | 20.9 | 0.00 | 6.83 | 0.00 | 98 | 1015.6 |
| 20260502065942 | 12 | 16 | 6.4 | 19.3 | 0.00 | 6.81 | 0.00 | 98 | 1015.6 |
| 20260502064942 | 12 | 41 | 9.7 | 22.5 | 0.00 | 6.86 | 0.00 | 99 | 1015.3 |
| 20260502064937 | 12 | 27 | 9.7 | 20.9 | 0.00 | 6.86 | 0.00 | 98 | 1015.5 |
| 20260502064201 | 12 | 49 | 12.9 | 32.2 | 0.00 | 6.88 | 0.00 | 99 | 1015.3 |
| 20260502063426 | 12 | 25 | 11.3 | 32.2 | 0.00 | 6.88 | 0.00 | 99 | 1015.2 |
| 20260502062923 | 12 | 21 | 9.7 | 20.9 | 0.00 | 6.88 | 0.00 | 99 | 1015.2 |
| 20260502062420 | 12 | 33 | 11.3 | 24.1 | 0.00 | 6.91 | 0.00 | 99 | 1015.3 |
| 20260502061910 | 12 | 41 | 11.3 | 24.1 | 0.00 | 6.91 | 0.00 | 99 | 1015.3 |
| 20260502061650 | 12 | 9 | 12.9 | 27.4 | 0.00 | 6.91 | 0.00 | 100 | 1015.2 |
| 20260502061110 | 12 | 13 | 12.9 | 27.4 | 0.00 | 6.91 | 0.00 | 100 | 1015.1 |
| 20260502060314 | 12 | 359 | 12.9 | 27.4 | 0.00 | 6.91 | 0.00 | 100 | 1015.1 |
| 20260502055748 | 12 | 31 | 9.7 | 27.4 | 0.00 | 6.93 | 0.00 | 100 | 1015.0 |
| 20260502055243 | 12 | 349 | 11.3 | 25.7 | 0.00 | 6.96 | 0.00 | 100 | 1015.0 |
| 20260502054740 | 12 | 4 | 16.1 | 30.6 | 0.00 | 7.04 | 0.00 | 100 | 1015.1 |
| 20260502054238 | 12 | 33 | 14.5 | 30.6 | 0.00 | 7.14 | 0.00 | 100 | 1015.1 |
| 20260502054019 | 12 | 35 | 12.9 | 33.8 | 0.00 | 7.47 | 0.00 | 100 | 1015.1 |
| 20260502053949 | 12 | 58 | 8.0 | 30.6 | 0.00 | 7.19 | 0.00 | 100 | 1015.1 |
| 20260502053903 | 13 | 41 | 8.0 | 22.5 | 0.00 | 7.24 | 0.00 | 100 | 1015.1 |
| 20260502053822 | 13 | 23 | 11.3 | 22.5 | 0.00 | 7.37 | 0.00 | 100 | 1015.2 |
| 20260502052113 | 12 | 35 | 12.9 | 33.8 | 0.00 | 7.47 | 0.00 | 100 | 1015.1 |
| 20260502051818 | 13 | 4 | 14.5 | 33.8 | 0.00 | 7.49 | 0.00 | 100 | 1015.1 |
| 20260502051318 | 13 | 23 | 14.5 | 35.4 | 0.00 | 7.52 | 0.00 | 100 | 1015.0 |
| 20260502050518 | 13 | 22 | 14.5 | 35.4 | 0.00 | 7.54 | 0.00 | 100 | 1015.0 |
| 20260502045952 | 13 | 40 | 12.9 | 27.4 | 0.00 | 7.54 | 7.54 | 100 | 1015.1 |
| 20260502045426 | 13 | 46 | 12.9 | 29.0 | 0.00 | 7.54 | 7.54 | 100 | 1015.1 |
| 20260502045402 | 13 | 12 | 11.3 | 29.0 | 0.00 | 7.54 | 7.54 | 100 | 1015.2 |
| 20260502044332 | 13 | 25 | 11.3 | 29.0 | 0.00 | 7.54 | 7.54 | 100 | 1015.3 |
| 20260502043808 | 13 | 337 | 12.9 | 29.0 | 0.00 | 7.54 | 7.54 | 100 | 1015.2 |
| 20260502043239 | 13 | 25 | 16.1 | 33.8 | 0.00 | 7.54 | 7.54 | 100 | 1015.2 |
| 20260502042738 | 13 | 12 | 14.5 | 33.8 | 0.00 | 7.54 | 7.54 | 100 | 1015.1 |
| 20260502042210 | 13 | 29 | 11.3 | 24.1 | 0.00 | 7.54 | 7.54 | 100 | 1015.1 |
| 20260502041707 | 13 | 354 | 11.3 | 24.1 | 0.00 | 7.54 | 7.54 | 100 | 1015.1 |
| 20260502041139 | 13 | 22 | 11.3 | 27.4 | 0.03 | 7.54 | 7.54 | 100 | 1015.1 |
| 20260502040637 | 13 | 354 | 11.3 | 27.4 | 0.03 | 7.54 | 7.54 | 100 | 1015.1 |
| 20260502040109 | 13 | 23 | 9.7 | 22.5 | 0.03 | 7.54 | 7.54 | 100 | 1015.1 |
| 20260502035607 | 13 | 359 | 9.7 | 27.4 | 0.03 | 7.54 | 7.54 | 100 | 1015.1 |
| 20260502035040 | 13 | 4 | 11.3 | 27.4 | 0.03 | 7.54 | 7.54 | 100 | 1014.7 |
| 20260502034515 | 13 | 33 | 12.9 | 22.5 | 0.03 | 7.54 | 7.54 | 100 | 1014.7 |
| 20260502033948 | 13 | 31 | 12.9 | 24.1 | 0.03 | 7.54 | 7.54 | 100 | 1014.8 |
| 20260502033445 | 13 | 359 | 11.3 | 25.7 | 0.03 | 7.54 | 7.54 | 100 | 1014.8 |
| 20260502032917 | 13 | 31 | 11.3 | 25.7 | 0.03 | 7.54 | 7.54 | 100 | 1014.6 |
| 20260502032415 | 13 | 354 | 8.0 | 24.1 | 0.03 | 7.54 | 7.54 | 100 | 1014.2 |
| 20260502031846 | 13 | 10 | 11.3 | 22.5 | 0.03 | 7.54 | 7.54 | 100 | 1014.2 |
| 20260502031613 | 13 | 354 | 11.3 | 22.5 | 0.03 | 7.52 | 7.54 | 100 | 1013.8 |
| 20260502030839 | 13 | 8 | 12.9 | 19.3 | 0.03 | 7.52 | 7.52 | 100 | 1013.7 |
| 20260502030335 | 13 | 12 | 14.5 | 30.6 | 0.05 | 7.52 | 7.52 | 100 | 1013.5 |
| 20260502025833 | 13 | 37 | 14.5 | 30.6 | 0.08 | 7.52 | 7.52 | 100 | 1013.5 |
| 20260502025306 | 13 | 354 | 14.5 | 30.6 | 0.08 | 7.52 | 7.52 | 100 | 1013.7 |
| 20260502025009 | 13 | 26 | 12.9 | 30.6 | 0.08 | 7.52 | 7.52 | 100 | 1013.6 |
| 20260502024236 | 13 | 8 | 12.9 | 27.4 | 0.08 | 7.52 | 7.52 | 100 | 1013.4 |
| 20260502023710 | 13 | 37 | 11.3 | 24.1 | 0.08 | 7.52 | 7.52 | 100 | 1013.3 |
| 20260502023143 | 13 | 14 | 11.3 | 24.1 | 0.10 | 7.52 | 7.52 | 100 | 1013.3 |
| 20260502022639 | 13 | 10 | 9.7 | 24.1 | 0.10 | 7.52 | 7.52 | 100 | 1013.3 |
| 20260502022137 | 14 | 16 | 9.7 | 19.3 | 0.13 | 7.52 | 7.52 | 100 | 1013.6 |
| 20260502021634 | 14 | 25 | 12.9 | 30.6 | 0.13 | 7.49 | 7.52 | 100 | 1013.5 |
| 20260502021108 | 14 | 14 | 11.3 | 30.6 | 0.15 | 7.49 | 7.49 | 100 | 1013.3 |
| 20260502020610 | 14 | 41 | 8.0 | 24.1 | 0.15 | 7.47 | 7.47 | 100 | 1013.2 |
| 20260502020305 | 14 | 13 | 6.4 | 17.7 | 0.15 | 7.47 | 7.47 | 100 | 1013.2 |
| 20260502015507 | 14 | 8 | 8.0 | 17.7 | 0.13 | 7.44 | 7.44 | 100 | 1013.3 |
| 20260502014947 | 14 | 54 | 9.7 | 24.1 | 0.13 | 7.44 | 7.44 | 100 | 1013.1 |
| 20260502014415 | 14 | 4 | 11.3 | 24.1 | 0.15 | 7.44 | 7.44 | 100 | 1012.8 |
| 20260502013914 | 14 | 16 | 11.3 | 24.1 | 0.15 | 7.44 | 7.44 | 100 | 1012.6 |
| 20260502013412 | 14 | 16 | 9.7 | 29.0 | 0.13 | 7.42 | 7.42 | 100 | 1012.4 |
| 20260502012847 | 14 | 14 | 9.7 | 29.0 | 0.13 | 7.42 | 7.42 | 100 | 1012.2 |
| 20260502012335 | 14 | 27 | 11.3 | 29.0 | 0.15 | 7.42 | 7.42 | 100 | 1012.2 |
| 20260502011835 | 14 | 354 | 9.7 | 29.0 | 0.13 | 7.39 | 7.39 | 100 | 1012.0 |
| 20260502011309 | 14 | 4 | 9.7 | 22.5 | 0.13 | 7.34 | 7.34 | 100 | 1012.3 |
| 20260502010744 | 14 | 359 | 9.7 | 24.1 | 0.13 | 7.32 | 7.32 | 100 | 1012.6 |
| 20260502010228 | 14 | 349 | 9.7 | 24.1 | 0.20 | 7.32 | 7.32 | 100 | 1012.5 |
| 20260502005959 | 15 | 348 | 11.3 | 22.5 | 0.23 | 7.32 | 7.32 | 100 | 1012.1 |
| 20260502005225 | 15 | 359 | 12.9 | 24.1 | 0.28 | 7.32 | 7.32 | 100 | 1011.7 |
| 20260502004724 | 15 | 21 | 12.9 | 30.6 | 0.25 | 7.29 | 7.32 | 100 | 1011.3 |
| 20260502004221 | 15 | 339 | 12.9 | 30.6 | 0.28 | 7.29 | 7.29 | 100 | 1011.1 |
| 20260502003723 | 15 | 354 | 11.3 | 25.7 | 0.28 | 7.29 | 7.29 | 100 | 1011.1 |
| 20260502003203 | 15 | 25 | 9.7 | 25.7 | 0.36 | 7.29 | 7.29 | 100 | 1010.9 |
| 20260502002651 | 15 | 349 | 9.7 | 19.3 | 0.38 | 7.29 | 7.29 | 100 | 1011.1 |
| 20260502002152 | 15 | 33 | 11.3 | 24.1 | 0.38 | 7.26 | 7.26 | 100 | 1011.3 |
| 20260502001656 | 15 | 354 | 11.3 | 24.1 | 0.41 | 7.24 | 7.24 | 100 | 1011.3 |
| 20260502001141 | 15 | 35 | 11.3 | 25.7 | 0.43 | 7.21 | 7.21 | 100 | 1011.0 |
| 20260502000648 | 15 | 4 | 11.3 | 25.7 | 0.46 | 7.19 | 7.19 | 100 | 1011.0 |
| 20260502000137 | 15 | 19 | 11.3 | 20.9 | 0.38 | 7.11 | 7.11 | 100 | 1011.4 |
| 20260501235852 | 15 | 27 | 9.7 | 20.9 | 0.33 | 7.06 | 7.06 | 100 | 1011.4 |
| 20260501235058 | 15 | 18 | 9.7 | 22.5 | 0.30 | 7.04 | 7.04 | 100 | 1011.2 |
| 20260501234556 | 15 | 348 | 12.9 | 30.6 | 0.28 | 7.01 | 7.01 | 100 | 1010.5 |
| 20260501234334 | 15 | 45 | 16.1 | 30.6 | 0.28 | 7.01 | 7.01 | 100 | 1009.8 |
| 20260501233801 | 15 | 48 | 16.1 | 33.8 | 0.25 | 6.99 | 6.99 | 100 | 1010.0 |
| 20260501233028 | 15 | 43 | 12.9 | 33.8 | 0.18 | 6.91 | 6.93 | 100 | 1010.1 |
| 20260501232525 | 15 | 37 | 12.9 | 27.4 | 0.18 | 6.91 | 6.91 | 100 | 1010.6 |
| 20260501232025 | 15 | 27 | 12.9 | 27.4 | 0.15 | 6.86 | 6.88 | 100 | 1011.0 |
| 20260501231511 | 15 | 12 | 12.9 | 27.4 | 0.10 | 6.81 | 6.83 | 100 | 1010.8 |
| 20260501231009 | 15 | 23 | 14.5 | 29.0 | 0.05 | 6.76 | 6.76 | 100 | 1010.6 |
| 20260501230509 | 15 | 338 | 11.3 | 29.0 | 0.08 | 6.73 | 6.73 | 100 | 1010.4 |
| 20260501230008 | 15 | 46 | 11.3 | 22.5 | 0.10 | 6.73 | 6.73 | 100 | 1010.5 |
| 20260501225459 | 15 | 21 | 16.1 | 33.8 | 0.13 | 6.73 | 6.73 | 100 | 1010.3 |
| 20260501224957 | 15 | 45 | 16.1 | 33.8 | 0.18 | 6.73 | 6.73 | 100 | 1009.8 |
| 20260501224454 | 15 | 59 | 14.5 | 32.2 | 0.20 | 6.73 | 6.73 | 100 | 1010.0 |
| 20260501223926 | 15 | 27 | 14.5 | 32.2 | 0.36 | 6.73 | 6.73 | 100 | 1010.0 |
| 20260501223437 | 15 | 345 | 16.1 | 37.0 | 0.64 | 6.73 | 6.73 | 100 | 1009.8 |
| 20260501222856 | 15 | 54 | 16.1 | 37.0 | 0.76 | 6.73 | 6.73 | 100 | 1009.8 |
| 20260501222624 | 16 | 40 | 14.5 | 33.8 | 0.84 | 6.71 | 6.71 | 100 | 1009.7 |
| 20260501221827 | 16 | 43 | 16.1 | 33.8 | 0.86 | 6.71 | 6.71 | 100 | 1010.1 |
| 20260501221554 | 16 | 41 | 14.5 | 30.6 | 0.89 | 6.71 | 6.71 | 100 | 1010.2 |
| 20260501220756 | 16 | 19 | 11.3 | 30.6 | 0.86 | 6.68 | 6.68 | 100 | 1010.3 |
| 20260501220255 | 16 | 12 | 11.3 | 25.7 | 0.81 | 6.63 | 6.63 | 100 | 1010.5 |
| 20260501215726 | 16 | 31 | 11.3 | 27.4 | 0.81 | 6.60 | 6.63 | 100 | 1010.2 |
| 20260501215223 | 16 | 348 | 12.9 | 27.4 | 0.81 | 6.58 | 6.58 | 100 | 1010.7 |
| 20260501214657 | 16 | 21 | 11.3 | 27.4 | 0.81 | 6.53 | 6.53 | 100 | 1010.2 |
| 20260501214404 | 16 | 27 | 8.0 | 19.3 | 0.81 | 6.48 | 6.48 | 100 | 1010.3 |
| 20260501213628 | 16 | 15 | 6.4 | 16.1 | 0.58 | 6.25 | 6.25 | 100 | 1010.1 |
| 20260501213125 | 16 | 37 | 6.4 | 27.4 | 0.41 | 6.02 | 6.02 | 100 | 1010.5 |
| 20260501212558 | 16 | 350 | 6.4 | 27.4 | 0.51 | 5.92 | 5.92 | 100 | 1010.7 |
| 20260501212056 | 16 | 17 | 6.4 | 14.5 | 0.48 | 5.84 | 5.84 | 100 | 1010.2 |
| 20260501211808 | 16 | 35 | 6.4 | 19.3 | 0.51 | 5.84 | 5.84 | 100 | 1010.0 |
| 20260501211025 | 16 | 33 | 8.0 | 19.3 | 0.48 | 5.82 | 5.82 | 100 | 1009.7 |
| 20260501210502 | 16 | 61 | 9.7 | 25.7 | 0.51 | 5.82 | 5.82 | 100 | 1008.9 |
| 20260501205956 | 16 | 48 | 9.7 | 27.4 | 0.48 | 5.79 | 5.79 | 100 | 1009.0 |
| 20260501205453 | 16 | 18 | 12.9 | 27.4 | 0.46 | 5.77 | 5.77 | 100 | 1008.8 |
| 20260501205225 | 16 | 53 | 14.5 | 27.4 | 0.43 | 5.74 | 5.74 | 100 | 1008.5 |
| 20260501204424 | 16 | 35 | 12.9 | 27.4 | 0.46 | 5.71 | 5.71 | 100 | 1008.8 |
| 20260501203927 | 16 | 13 | 11.3 | 20.9 | 0.41 | 5.66 | 5.66 | 100 | 1009.9 |
| 20260501203626 | 16 | 14 | 9.7 | 25.7 | 0.41 | 5.64 | 5.64 | 100 | 1010.2 |
| 20260501202852 | 16 | 62 | 8.0 | 25.7 | 0.33 | 5.54 | 5.54 | 100 | 1009.9 |
| 20260501202348 | 16 | 29 | 8.0 | 20.9 | 0.20 | 5.36 | 5.36 | 100 | 1009.9 |
| 20260501201844 | 16 | 345 | 9.7 | 20.9 | 0.20 | 5.36 | 5.36 | 100 | 1009.2 |
| 20260501201347 | 16 | 359 | 8.0 | 20.9 | 0.18 | 5.33 | 5.33 | 100 | 1008.8 |